Time,TemperatureF,DewpointF,PressureIn,WindDirection,WindDirectionDegrees,WindSpeedMPH,WindSpeedGustMPH,Humidity,HourlyPrecipIn,Conditions,Clouds,dailyrainin,SoftwareType,DateUTC
2015-04-18 00:03:00,51.1,37.7,29.96,WSW,250,0.0,0.0,60,0.00,,SKC,0.00,VWS V15.00,2015-04-18 07:03:00,
2015-04-18 00:08:00,50.8,37.8,29.96,WSW,250,0.0,0.0,61,0.00,,SKC,0.00,VWS V15.00,2015-04-18 07:08:00,
2015-04-18 00:13:00,50.7,38.2,29.96,WSW,250,0.0,0.0,62,0.00,,SKC,0.00,VWS V15.00,2015-04-18 07:13:00,
2015-04-18 00:18:00,50.5,37.6,29.95,WSW,250,0.0,0.0,61,0.00,,SKC,0.00,VWS V15.00,2015-04-18 07:18:00,
2015-04-18 00:23:00,50.5,38.0,29.95,WSW,250,0.0,0.0,62,0.00,,SKC,0.00,VWS V15.00,2015-04-18 07:23:00,
2015-04-18 00:28:00,50.2,37.7,29.95,WSW,250,0.0,0.0,62,0.00,,SKC,0.00,VWS V15.00,2015-04-18 07:28:00,
2015-04-18 00:33:00,50.1,38.0,29.95,WSW,250,0.0,0.0,63,0.00,,SKC,0.00,VWS V15.00,2015-04-18 07:33:00,
2015-04-18 00:38:00,50.1,38.4,29.95,WSW,250,0.0,0.0,64,0.00,,SKC,0.00,VWS V15.00,2015-04-18 07:38:00,
2015-04-18 00:43:00,49.9,38.2,29.95,WSW,250,0.0,0.0,64,0.00,,SKC,0.00,VWS V15.00,2015-04-18 07:43:00,
2015-04-18 00:48:00,49.8,38.1,29.96,WSW,250,0.0,0.0,64,0.00,,SKC,0.00,VWS V15.00,2015-04-18 07:48:00,
2015-04-18 00:53:00,49.9,38.2,29.96,WSW,250,0.0,0.0,64,0.00,,SKC,0.00,VWS V15.00,2015-04-18 07:53:00,
2015-04-18 00:58:00,50.1,38.0,29.96,WSW,250,0.0,0.0,63,0.00,,SKC,0.00,VWS V15.00,2015-04-18 07:58:00,
2015-04-18 01:03:00,50.1,38.4,29.95,WSW,250,0.0,0.0,64,0.00,,SKC,0.00,VWS V15.00,2015-04-18 08:03:00,
2015-04-18 01:08:00,49.9,38.6,29.95,WSW,250,0.0,0.0,65,0.00,,SKC,0.00,VWS V15.00,2015-04-18 08:08:00,
2015-04-18 01:13:00,49.5,38.2,29.95,WSW,250,0.0,0.0,65,0.00,,SKC,0.00,VWS V15.00,2015-04-18 08:13:00,
2015-04-18 01:18:00,49.2,38.0,29.95,WSW,250,0.0,0.0,65,0.00,,SKC,0.00,VWS V15.00,2015-04-18 08:18:00,
2015-04-18 01:23:00,49.1,38.2,29.95,WSW,250,0.0,0.0,66,0.00,,SKC,0.00,VWS V15.00,2015-04-18 08:23:00,
2015-04-18 01:28:00,49.1,38.2,29.95,WSW,250,0.0,0.0,66,0.00,,SKC,0.00,VWS V15.00,2015-04-18 08:28:00,
2015-04-18 01:33:00,49.1,38.2,29.95,WSW,250,0.0,0.0,66,0.00,,SKC,0.00,VWS V15.00,2015-04-18 08:33:00,
2015-04-18 01:38:00,49.1,38.6,29.95,WSW,250,0.0,0.0,67,0.00,,SKC,0.00,VWS V15.00,2015-04-18 08:38:00,
2015-04-18 01:43:00,49.1,38.2,29.95,WSW,250,0.0,0.0,66,0.00,,SKC,0.00,VWS V15.00,2015-04-18 08:43:00,
2015-04-18 01:49:00,49.2,38.3,29.95,WSW,250,0.0,0.0,66,0.00,,SKC,0.00,VWS V15.00,2015-04-18 08:49:00,
2015-04-18 01:54:00,49.2,38.0,29.95,WSW,250,0.0,0.0,65,0.00,,SKC,0.00,VWS V15.00,2015-04-18 08:54:00,
2015-04-18 01:59:00,49.2,38.3,29.95,WSW,250,0.0,0.0,66,0.00,,SKC,0.00,VWS V15.00,2015-04-18 08:59:00,
2015-04-18 02:04:00,49.1,38.2,29.95,WSW,250,0.0,0.0,66,0.00,,SKC,0.00,VWS V15.00,2015-04-18 09:04:00,
2015-04-18 02:09:00,49.1,37.9,29.95,WSW,250,0.0,0.0,65,0.00,,SKC,0.00,VWS V15.00,2015-04-18 09:09:00,
2015-04-18 02:14:00,49.1,38.2,29.95,WSW,250,0.0,0.0,66,0.00,,SKC,0.00,VWS V15.00,2015-04-18 09:14:00,
2015-04-18 02:19:00,48.8,38.3,29.94,WSW,250,0.0,0.0,67,0.00,,SKC,0.00,VWS V15.00,2015-04-18 09:19:00,
2015-04-18 02:24:00,48.6,38.2,29.94,WSW,250,0.0,0.0,67,0.00,,SKC,0.00,VWS V15.00,2015-04-18 09:24:00,
2015-04-18 02:29:00,48.6,38.2,29.94,WSW,250,0.0,0.0,67,0.00,,SKC,0.00,VWS V15.00,2015-04-18 09:29:00,
2015-04-18 02:34:00,48.6,38.2,29.94,WSW,250,0.0,0.0,67,0.00,,SKC,0.00,VWS V15.00,2015-04-18 09:34:00,
2015-04-18 02:39:00,48.6,38.2,29.94,WSW,250,0.0,0.0,67,0.00,,SKC,0.00,VWS V15.00,2015-04-18 09:39:00,
2015-04-18 02:44:00,48.6,38.2,29.94,WSW,250,0.0,0.0,67,0.00,,SKC,0.00,VWS V15.00,2015-04-18 09:44:00,
2015-04-18 02:49:00,48.5,38.1,29.94,WSW,250,0.0,0.0,67,0.00,,SKC,0.00,VWS V15.00,2015-04-18 09:49:00,
2015-04-18 02:54:00,48.5,37.7,29.94,WSW,250,0.0,0.0,66,0.00,,SKC,0.00,VWS V15.00,2015-04-18 09:54:00,
2015-04-18 02:59:00,48.6,37.8,29.94,WSW,250,0.0,0.0,66,0.00,,SKC,0.00,VWS V15.00,2015-04-18 09:59:00,
2015-04-18 03:04:00,48.9,37.7,29.94,WSW,250,0.0,0.0,65,0.00,,SKC,0.00,VWS V15.00,2015-04-18 10:04:00,
2015-04-18 03:09:00,49.1,37.9,29.94,WSW,250,0.0,0.0,65,0.00,,SKC,0.00,VWS V15.00,2015-04-18 10:09:00,
2015-04-18 03:14:00,49.2,37.6,29.94,WSW,250,0.0,0.0,64,0.00,,SKC,0.00,VWS V15.00,2015-04-18 10:14:00,
2015-04-18 03:20:00,49.2,37.6,29.94,WSW,250,0.0,0.0,64,0.00,,SKC,0.00,VWS V15.00,2015-04-18 10:20:00,
2015-04-18 03:25:00,49.1,38.2,29.94,WSW,250,0.0,0.0,66,0.00,,SKC,0.00,VWS V15.00,2015-04-18 10:25:00,
2015-04-18 03:30:00,48.9,37.7,29.94,WSW,250,0.0,0.0,65,0.00,,SKC,0.00,VWS V15.00,2015-04-18 10:30:00,
2015-04-18 03:35:00,48.8,37.6,29.94,WSW,250,0.0,0.0,65,0.00,,SKC,0.00,VWS V15.00,2015-04-18 10:35:00,
2015-04-18 03:40:00,48.8,38.0,29.94,WSW,250,0.0,0.0,66,0.00,,SKC,0.00,VWS V15.00,2015-04-18 10:40:00,
2015-04-18 03:45:00,48.8,37.2,29.94,WSW,250,0.0,0.0,64,0.00,,SKC,0.00,VWS V15.00,2015-04-18 10:45:00,
2015-04-18 03:50:00,48.9,37.7,29.94,WSW,250,0.0,0.0,65,0.00,,SKC,0.00,VWS V15.00,2015-04-18 10:50:00,
2015-04-18 03:55:00,49.1,37.9,29.94,WSW,250,0.0,0.0,65,0.00,,SKC,0.00,VWS V15.00,2015-04-18 10:55:00,
2015-04-18 04:00:00,48.9,37.7,29.93,WSW,250,0.0,0.0,65,0.00,,SKC,0.00,VWS V15.00,2015-04-18 11:00:00,
2015-04-18 04:05:00,48.6,38.2,29.93,WSW,250,0.0,0.0,67,0.00,,SKC,0.00,VWS V15.00,2015-04-18 11:05:00,
2015-04-18 04:10:00,48.3,37.5,29.93,WSW,250,0.0,0.0,66,0.00,,SKC,0.00,VWS V15.00,2015-04-18 11:10:00,
2015-04-18 04:15:00,48.2,37.4,29.93,WSW,250,0.0,0.0,66,0.00,,SKC,0.00,VWS V15.00,2015-04-18 11:15:00,
2015-04-18 04:20:00,48.2,37.4,29.93,WSW,250,0.0,0.0,66,0.00,,SKC,0.00,VWS V15.00,2015-04-18 11:20:00,
2015-04-18 04:25:00,47.9,37.9,29.93,WSW,250,0.0,0.0,68,0.00,,SKC,0.00,VWS V15.00,2015-04-18 11:25:00,
2015-04-18 04:30:00,47.4,37.4,29.93,WSW,250,0.0,0.0,68,0.00,,SKC,0.00,VWS V15.00,2015-04-18 11:30:00,
2015-04-18 04:35:00,47.6,37.2,29.93,WSW,250,0.0,0.0,67,0.00,,SKC,0.00,VWS V15.00,2015-04-18 11:35:00,
2015-04-18 04:40:00,47.7,37.3,29.93,WSW,250,0.0,0.0,67,0.00,,SKC,0.00,VWS V15.00,2015-04-18 11:40:00,
2015-04-18 04:45:00,47.7,37.3,29.93,WSW,250,0.0,0.0,67,0.00,,SKC,0.00,VWS V15.00,2015-04-18 11:45:00,